This is the latest recevied weather packets stored in our database for station/object K5KHP. If no packets are shown the sender has not sent any weather packets the latest 10 day(s).
| Time | Temp. | Humidity | Pressure | Rain* | Wind** | Luminosity | Snow |
|---|---|---|---|---|---|---|---|
| 1777912548 | 17.22° C | 64% | 1014.8 hPa | 0 mm | - | 451 W/m² | - |
| 1777912245 | 17.22° C | 65% | 1014.8 hPa | 0 mm | - | 462 W/m² | - |
| 1777911941 | 17.22° C | 66% | 1015 hPa | 0 mm | - | 455 W/m² | - |
| 1777911637 | 16.67° C | 68% | 1014.9 hPa | 0 mm | - | 430 W/m² | - |
| 1777911333 | 16.67° C | 71% | 1014.7 hPa | 0 mm | - | 132 W/m² | - |
| 1777911031 | 16.11° C | 73% | 1014.8 hPa | 0 mm | - | 278 W/m² | - |
| 1777910729 | 16.11° C | 71% | 1014.8 hPa | 0 mm | - | 358 W/m² | - |
| 1777910425 | 16.11° C | 73% | 1014.9 hPa | 0 mm | - | 170 W/m² | - |
| 1777910121 | 16.11° C | 74% | 1014.8 hPa | 0 mm | - | 287 W/m² | - |
| 1777909820 | 16.11° C | 75% | 1014.7 hPa | 0 mm | - | 276 W/m² | - |
| 1777909516 | 16.11° C | 75% | 1014.6 hPa | 0 mm | - | 185 W/m² | - |
| 1777909213 | 16.11° C | 75% | 1014.6 hPa | 0 mm | - | 259 W/m² | - |
| 1777908911 | 16.11° C | 75% | 1014.6 hPa | 0 mm | - | 255 W/m² | - |
| 1777908609 | 16.67° C | 76% | 1014.7 hPa | 0 mm | - | 91 W/m² | - |
| 1777908305 | 16.11° C | 78% | 1014.5 hPa | 0 mm | - | 189 W/m² | - |
| 1777908001 | 16.11° C | 79% | 1014.4 hPa | 0 mm | - | 216 W/m² | - |
| 1777907697 | 15.56° C | 80% | 1014.4 hPa | 0 mm | - | 204 W/m² | - |
| 1777907392 | 15° C | 82% | 1014.4 hPa | 0 mm | - | 165 W/m² | - |
| 1777907089 | 15° C | 82% | 1014.5 hPa | 0 mm | - | 176 W/m² | - |
| 1777906787 | 15° C | 83% | 1014.5 hPa | 0 mm | - | 190 W/m² | - |
| 1777906484 | 14.44° C | 84% | 1014.5 hPa | 0 mm | - | 115 W/m² | - |
| 1777906180 | 15° C | 83% | 1014.3 hPa | 0 mm | - | 101 W/m² | - |
| 1777905877 | 14.44° C | 84% | 1014.2 hPa | 0 mm | - | 150 W/m² | - |
| 1777905574 | 14.44° C | 85% | 1014.3 hPa | 0 mm | - | 113 W/m² | - |
| 1777905271 | 13.89° C | 87% | 1014.3 hPa | 0 mm | - | 122 W/m² | - |
* Rain latest hour (hover to see other rain measurements)
** Current wind speed in m/s (hover to see current wind gust speed)